This is the latest recevied weather packets stored in our database for station/object KF7SOJ. If no packets are shown the sender has not sent any weather packets the latest 10 day(s).
| Time | Temp. | Humidity | Pressure | Rain* | Wind** | Luminosity | Snow |
|---|---|---|---|---|---|---|---|
| 1787770773 | 28.33° C | 32% | 937.6 hPa | 0 mm | - | 799 W/m² | - |
| 1787770472 | 28.33° C | 31% | 937.4 hPa | 0 mm | - | 884 W/m² | - |
| 1787770171 | 28.33° C | 31% | 937.5 hPa | 0 mm | - | 888 W/m² | - |
| 1787769871 | 27.78° C | 33% | 937.5 hPa | 0 mm | - | 869 W/m² | - |
| 1787769571 | 27.78° C | 32% | 937.6 hPa | 0 mm | - | 933 W/m² | - |
| 1787769270 | 27.22° C | 33% | 937.7 hPa | 0 mm | - | 644 W/m² | - |
| 1787768970 | 27.22° C | 33% | 937.8 hPa | 0 mm | - | 530 W/m² | - |
| 1787768665 | 27.78° C | 33% | 937.8 hPa | 0 mm | - | 839 W/m² | - |
| 1787768362 | 27.22° C | 34% | 938 hPa | 0 mm | - | 851 W/m² | - |
| 1787768058 | 26.67° C | 35% | 937.8 hPa | 0 mm | - | 810 W/m² | - |
| 1787767758 | 27.22° C | 34% | 938.2 hPa | 0 mm | - | 810 W/m² | - |
| 1787767453 | 27.22° C | 35% | 938.3 hPa | 0 mm | - | 792 W/m² | - |
| 1787767151 | 26.67° C | 36% | 938.3 hPa | 0 mm | - | 796 W/m² | - |
| 1787766850 | 26.11° C | 37% | 938.2 hPa | 0 mm | - | 786 W/m² | - |
| 1787766550 | 25.56° C | 37% | 938.3 hPa | 0 mm | - | 769 W/m² | - |
| 1787766249 | 26.11° C | 36% | 938.5 hPa | 0 mm | - | 772 W/m² | - |
| 1787765944 | 25.56° C | 38% | 938.4 hPa | 0 mm | - | 769 W/m² | - |
| 1787765641 | 25° C | 38% | 938.6 hPa | 0 mm | - | 756 W/m² | - |
| 1787765336 | 25.56° C | 37% | 938.6 hPa | 0 mm | - | 735 W/m² | - |
| 1787765035 | 25.56° C | 38% | 938.5 hPa | 0 mm | - | 717 W/m² | - |
| 1787764731 | 25° C | 38% | 938.5 hPa | 0 mm | - | 705 W/m² | - |
| 1787764425 | 25° C | 39% | 938.4 hPa | 0 mm | - | 720 W/m² | - |
| 1787764122 | 24.44° C | 39% | 938.6 hPa | 0 mm | - | 701 W/m² | - |
| 1787763817 | 24.44° C | 39% | 938.7 hPa | 0 mm | - | 705 W/m² | - |
* Rain latest hour (hover to see other rain measurements)
** Current wind speed in m/s (hover to see current wind gust speed)